Location: ??
(35.1715°N, 139.6450°E)
Time: 09:34:16
(UTC+00:00)

Cosmos 1484 Rocket - Pass Details

Date: 05 August 2024
Orbit: 474 x 514 km, 97.6° (Epoch: 14 September)

Event Time Altitude Azimuth Distance (km) Brightness Sun altitude
Rises 18:45:36 0° 21° (NNE) 2,529 7.1 -13.4°
Reaches altitude 10° 18:47:46 10° 31° (NNE) 1,646 6.3 -13.0°
Maximum altitude 18:51:03 35° 99° (E) 778 4.1 -12.4°
Drops below altitude 10° 18:54:18 10° 166° (SSE) 1,641 5.1 -11.9°
Sets 18:56:28 0° 176° (S) 2,519 5.9 -11.5°
